Casper, WY

5:24 PM MDT on July 25, 2017 (GMT -0600)
Natrona County International

Weather History for KCPR - January, 2014

Change the Weather History Date:

Sunday, January 5, 2014

  Actual Average Record
Temperature  
Mean Temperature -8 °F 24 °F  
Max Temperature 7 °F 35 °F 51 °F (2012)
Min Temperature -24 °F 14 °F -27 °F (2017)
Degree Days  
Heating Degree Days 73 41  
Month to date heating degree days 243 205  
Since 1 July heating degree days 3463 3334  
Cooling Degree Days 0 0  
Month to date cooling degree days 0 0  
Year to date cooling degree days 0 0  
Moisture  
Dew Point -6 °F    
Average Humidity 75    
Maximum Humidity 88    
Minimum Humidity 61    
Precipitation  
Precipitation 0.03 in 0.01 in 0.53 in (1987)
Month to date precipitation 0.29 0.08  
Year to date precipitation 0.29 0.08  
Snow  
Snow 1.10 in 0.30 in - ()
Month to date snowfall 5.7 1.6  
Since 1 July snowfall 46.2 32.1  
Snow Depth 3.00 in    
Sea Level Pressure  
Sea Level Pressure 30.37 in    
Wind  
Wind Speed 10 mph (North)    
Max Wind Speed 28 mph    
Max Gust Speed 33 mph    
Visibility 6 miles    
Events Snow    
T = Trace of Precipitation, MM = Missing Value Source: NWS Daily Summary

Daily Weather History Graph

Daily Weather History Graph

Search for Another Location

Airport or City:

Trip Planner

Search our weather history database for the weather conditions in past years. The results will help you decide how hot, cold, wet, or windy it might be!

Date:

Astronomy

Jan. 05, 2014 Rise Set
Actual Time 7:36 AM MST 4:46 PM MST
Civil Twilight 7:04 AM MST 5:18 PM MST
Nautical Twilight 6:29 AM MST 5:53 PM MST
Astronomical Twilight 5:55 AM MST 6:27 PM MST
Moon 10:12 AM MST (1/5) 10:25 PM MST (1/5)
Length of Visible Light 10h 13m
Length of Day
9h 09m
Waxing Crescent, 25% of the Moon is Illuminated
Jan 5
Waxing Crescent
Jan 7
First Quarter
Jan 15
Full
Jan 23
Last Quarter
Jan 30
New

Hourly Weather History & Observations

Time (MST) Temp. Windchill Dew Point Humidity Pressure Visibility Wind Dir Wind Speed Gust Speed Precip Events Conditions
12:18 AM 6.1 °F -10.2 °F 1.9 °F 83% 30.06 in 1.5 mi North 12.7 mph - 0.01 in Snow Light Snow
12:28 AM 5.0 °F -13.0 °F 1.0 °F 84% 30.06 in 2.0 mi NNE 15.0 mph - 0.01 in Snow Light Snow
12:53 AM 5.0 °F -13.0 °F -0.0 °F 80% 30.28 in 4.0 mi NNE 15.0 mph - 0.01 in Snow Light Snow
1:17 AM 3.9 °F -13.7 °F -0.0 °F 84% 30.07 in 2.0 mi NE 13.8 mph - 0.00 in Snow Light Snow
1:26 AM 3.9 °F -13.0 °F -0.0 °F 84% 30.07 in 1.8 mi NNE 12.7 mph - 0.00 in Snow Light Snow
1:36 AM 3.9 °F -12.2 °F -0.9 °F 80% 30.08 in 2.5 mi NNE 11.5 mph - 0.01 in Snow Light Snow
1:43 AM 3.9 °F -11.3 °F -0.9 °F 80% 30.08 in 3.0 mi NE 10.4 mph - 0.01 in Snow Light Snow
1:53 AM 3.9 °F -9.4 °F -0.9 °F 80% 30.31 in 5.0 mi NE 8.1 mph - 0.01 in   Haze
2:15 AM 3.9 °F -9.4 °F -0.9 °F 80% 30.11 in 4.0 mi NE 8.1 mph - N/A   Haze
2:45 AM 3.9 °F -11.3 °F -0.0 °F 84% 30.12 in 2.5 mi NNE 10.4 mph - 0.00 in Snow Light Snow
2:53 AM 3.9 °F -11.3 °F -0.0 °F 84% 30.35 in 1.5 mi NE 10.4 mph - 0.00 in Snow Light Snow
3:07 AM 3.9 °F -12.2 °F -0.0 °F 84% 30.13 in 3.0 mi NNE 11.5 mph - 0.00 in Snow Light Snow
3:21 AM 3.9 °F -12.2 °F -0.0 °F 84% 30.14 in 1.8 mi NNE 11.5 mph - 0.00 in Snow Light Snow
3:35 AM 3.9 °F -10.4 °F -0.9 °F 80% 30.14 in 2.0 mi NNE 9.2 mph - 0.01 in Snow Light Snow
3:38 AM 3.9 °F -9.4 °F -0.9 °F 80% 30.14 in 3.0 mi NNE 8.1 mph - 0.01 in Snow Light Snow
3:53 AM 3.9 °F -8.2 °F -0.9 °F 80% 30.38 in 6.0 mi NE 6.9 mph - 0.01 in   Haze
4:07 AM 3.9 °F -6.9 °F -0.9 °F 80% 30.15 in 2.5 mi ENE 5.8 mph - 0.00 in Snow Light Snow
4:17 AM 3.9 °F -6.9 °F -0.9 °F 80% 30.15 in 4.0 mi ENE 5.8 mph - 0.00 in   Haze
4:44 AM 3.0 °F -10.5 °F -0.9 °F 84% 30.15 in 2.5 mi NNE 8.1 mph - 0.00 in Snow Light Snow
4:53 AM 3.0 °F -8.0 °F -0.9 °F 84% 30.43 in 3.0 mi NE 5.8 mph - 0.00 in Snow Light Snow
5:53 AM -0.9 °F - -4.0 °F 87% 30.43 in 8.0 mi Calm Calm - 0.00 in   Overcast
6:20 AM -2.9 °F - -6.0 °F 87% 30.17 in 7.0 mi Calm Calm - N/A   Partly Cloudy
6:27 AM -5.1 °F -13.6 °F -6.0 °F 96% 30.18 in 7.0 mi WNW 3.5 mph - N/A   Partly Cloudy
6:53 AM -8.0 °F -16.9 °F -11.9 °F 83% 30.47 in 10.0 mi SW 3.5 mph - N/A   Partly Cloudy
7:53 AM -9.9 °F -24.9 °F -13.0 °F 86% 30.52 in 10.0 mi WNW 6.9 mph - N/A   Overcast
8:39 AM -2.9 °F -11.2 °F -7.1 °F 82% 30.23 in 1.8 mi West 3.5 mph - 0.00 in Snow Light Snow
8:49 AM -2.2 °F -10.4 °F -5.8 °F 85% 30.23 in 1.0 mi WSW 3.5 mph - 0.00 in Snow Light Snow
8:53 AM -2.0 °F -12.2 °F -4.0 °F 91% 30.53 in 1.0 mi SW 4.6 mph - 0.00 in Snow Light Snow
9:07 AM -0.0 °F -13.0 °F -4.0 °F 83% 30.23 in 2.0 mi SSW 6.9 mph - 0.00 in Snow Light Snow
9:28 AM 1.0 °F -10.3 °F -2.9 °F 83% 30.24 in 4.0 mi WSW 5.8 mph - 0.00 in Snow Light Snow
9:39 AM 1.0 °F -14.9 °F -2.0 °F 87% 30.25 in 10.0 mi WSW 10.4 mph - 0.00 in   Mostly Cloudy
9:53 AM -0.9 °F -15.3 °F -6.0 °F 79% 30.55 in 10.0 mi WSW 8.1 mph - 0.00 in   Scattered Clouds
10:53 AM 3.0 °F -13.3 °F -5.1 °F 69% 30.54 in 10.0 mi WNW 11.5 mph - N/A   Clear
11:53 AM 3.9 °F -16.6 °F -7.1 °F 60% 30.54 in 10.0 mi WNW 19.6 mph - N/A   Mostly Cloudy
12:53 PM 3.9 °F -18.1 °F -7.1 °F 60% 30.55 in 10.0 mi NW 23.0 mph - N/A   Overcast
1:14 PM 1.9 °F -13.8 °F -6.0 °F 69% 30.27 in 10.0 mi North 10.4 mph - N/A   Overcast
1:53 PM -0.9 °F -12.7 °F -8.0 °F 72% 30.60 in 10.0 mi North 5.8 mph - N/A   Mostly Cloudy
2:53 PM -2.9 °F -13.3 °F -11.0 °F 68% 30.64 in 10.0 mi ENE 4.6 mph - N/A   Partly Cloudy
3:53 PM -7.1 °F -23.9 °F -15.0 °F 68% 30.69 in 10.0 mi NE 9.2 mph - N/A   Clear
4:53 PM -11.9 °F -29.9 °F -18.0 °F 74% 30.72 in 10.0 mi NE 9.2 mph - N/A   Clear
5:53 PM -18.9 °F - -23.1 °F 81% 30.77 in 10.0 mi Calm Calm - N/A   Clear
6:53 PM -20.9 °F -31.7 °F -25.1 °F 81% 30.80 in 10.0 mi WSW 3.5 mph - N/A   Clear
7:53 PM -16.1 °F -37.2 °F -22.0 °F 74% 30.76 in 10.0 mi WSW 11.5 mph - N/A   Clear
8:53 PM -4.0 °F -25.2 °F -15.0 °F 59% 30.65 in 10.0 mi WSW 16.1 mph - N/A   Clear
9:53 PM -4.0 °F -25.8 °F -14.1 °F 62% 30.62 in 10.0 mi SW 17.3 mph - N/A   Clear
10:53 PM -4.0 °F -27.0 °F -14.1 °F 62% 30.58 in 10.0 mi SW 19.6 mph - N/A   Clear
11:53 PM -2.9 °F -25.6 °F -13.0 °F 62% 30.55 in 10.0 mi SW 19.6 mph - N/A   Clear